Stations météo

Publicité
Pau, France (7610): Température de l'air & dewpoint: 07.08.2020 12:00:00 - 13.08.2020 12:00:00 (CEST)Pau, France (7610): Température de l'air 5cm: 07.08.2020 12:00:00 - 13.08.2020 12:00:00 (CEST)Pau, France (7610): Température de l'air -20cm & Température de l'air -100cm: 07.08.2020 12:00:00 - 13.08.2020 12:00:00 (CEST)Pau, France (7610): Vitesse du vent & gusts: 07.08.2020 12:00:00 - 13.08.2020 12:00:00 (CEST)Pau, France (7610): Direction du vent: 07.08.2020 12:00:00 - 13.08.2020 12:00:00 (CEST)Pau, France (7610): reduced air pressure: 07.08.2020 12:00:00 - 13.08.2020 12:00:00 (CEST)Pau, France (7610): visibility: 07.08.2020 12:00:00 - 13.08.2020 12:00:00 (CEST)Pau, France (7610): Ensoleillement: 07.08.2020 12:00:00 - 13.08.2020 12:00:00 (CEST)Pau, France (7610): Quantités de précipitations: 07.08.2020 12:00:00 - 13.08.2020 12:00:00 (CEST)
Date & Time tt [°C] td [°C] tt 5cm [°C] tt -20cm [°C] tt -100cm [°C] ff [km/h] ff [knt] fx [km/h] fx [knt] dd ppp [hPa] vv [km] sd [min] rr [mm]
13.08.2020 12:00:00 - - - - - - - - - - - - - -
13.08.2020 11:00:00 - - - - - - - - - - - - - -
13.08.2020 10:00:00 - - - - - - - - - - - - - -
13.08.2020 09:00:00 - - - - - - - - - - - - - -
13.08.2020 08:00:00 - - - - - - - - - - - - - -
13.08.2020 07:00:00 - - - - - - - - - - - - - -
13.08.2020 06:00:00 - - - - - - - - - - - - - -
13.08.2020 05:00:00 - - - - - - - - - - - - - -
13.08.2020 04:00:00 - - - - - - - - - - - - - -
13.08.2020 03:00:00 - - - - - - - - - - - - - -
13.08.2020 02:00:00 - - - - - - - - - - - - - -
13.08.2020 01:00:00 - - - - - - - - - - - - - -
13.08.2020 00:00:00 - - - - - - - - - - - - - -
12.08.2020 23:00:00 - - - - - - - - - - - - - -
12.08.2020 22:00:00 - - - - - - - - - - - - - -
12.08.2020 21:00:00 - - - - - - - - - - - - - -
12.08.2020 20:00:00 - - - - - - - - - - - - - -
12.08.2020 19:00:00 - - - - - - - - - - - - - -
12.08.2020 18:00:00 - - - - - - - - - - - - - -
12.08.2020 17:00:00 - - - - - - - - - - - - - -
12.08.2020 16:00:00 - - - - - - - - - - - - - -
12.08.2020 15:00:00 - - - - - - - - - - - - - -
12.08.2020 14:00:00 - - - - - - - - - - - - - -
12.08.2020 13:00:00 - - - - - - - - - - - - - -
12.08.2020 12:00:00 - - - - - - - - - - - - - -
12.08.2020 11:00:00 - - - - - - - - - - - - - -
12.08.2020 10:00:00 - - - - - - - - - - - - - -
12.08.2020 09:00:00 - - - - - - - - - - - - - -
12.08.2020 08:00:00 - - - - - - - - - - - - - -
12.08.2020 07:00:00 - - - - - - - - - - - - - -
12.08.2020 06:00:00 - - - - - - - - - - - - - -
12.08.2020 05:00:00 - - - - - - - - - - - - - -
12.08.2020 04:00:00 - - - - - - - - - - - - - -
12.08.2020 03:00:00 - - - - - - - - - - - - - -
12.08.2020 02:00:00 - - - - - - - - - - - - - -
12.08.2020 01:00:00 - - - - - - - - - - - - - -
12.08.2020 00:00:00 - - - - - - - - - - - - - -
11.08.2020 23:00:00 - - - - - - - - - - - - - -
11.08.2020 22:00:00 - - - - - - - - - - - - - -
11.08.2020 21:00:00 - - - - - - - - - - - - - -
11.08.2020 20:00:00 - - - - - - - - - - - - - -
11.08.2020 19:00:00 - - - - - - - - - - - - - -
11.08.2020 18:00:00 - - - - - - - - - - - - - -
11.08.2020 17:00:00 - - - - - - - - - - - - - -
11.08.2020 16:00:00 - - - - - - - - - - - - - -
11.08.2020 15:00:00 30,1 23,0 33,5 22,9 20,2 16 9 25 13 NE 1011,2 20 11 0,0
11.08.2020 14:00:00 28,8 21,1 32,8 23,0 20,3 9 5 13 7 N 1011,5 38 0 0,0
11.08.2020 13:00:00 29,3 18,1 33,0 22,9 20,2 7 4 24 13 SSE 1011,9 40 21 0,0
11.08.2020 12:00:00 27,1 20,9 28,7 23,0 20,2 12 7 22 12 SE 1011,8 31 11 0,0
11.08.2020 11:00:00 22,9 20,8 23,6 23,0 20,3 8 4 - - E 1013,3 17 1 0,0
11.08.2020 10:00:00 21,4 19,9 21,1 23,0 20,2 4 2 - - SSE 1014,4 14 0 0,0
11.08.2020 09:00:00 20,5 20,0 20,0 23,1 20,2 5 3 9 5 SE 1014,4 8 0 0,0
11.08.2020 08:00:00 20,0 19,7 19,1 23,1 20,2 5 3 8 4 SW 1014,0 4,1 0 0,0
11.08.2020 07:00:00 19,5 19,2 17,1 23,2 20,2 2 1 9 5 SSW 1013,2 3,4 0 0,0
11.08.2020 06:00:00 18,5 18,0 15,0 23,2 20,2 2 1 6 3 NE 1013,2 0,7 0 0,0
11.08.2020 05:00:00 19,6 19,1 15,3 23,3 20,2 3 2 9 5 SW 1013,4 2,3 0 0,0
11.08.2020 04:00:00 20,0 19,3 17,7 23,3 20,2 6 4 10 5 WSW 1013,5 7 0 0,0
11.08.2020 03:00:00 20,4 19,6 18,9 23,3 20,2 4 2 14 7 WSW 1013,7 11 0 0,0
11.08.2020 02:00:00 20,6 19,6 19,0 23,3 20,2 5 3 14 8 W 1014,1 15 0 0,0
11.08.2020 01:00:00 21,0 19,6 19,5 23,3 20,2 8 4 15 8 WSW 1014,0 16 0 0,0
11.08.2020 00:00:00 21,8 20,1 20,4 23,4 20,2 9 5 21 12 W 1013,6 18 0 0,0
10.08.2020 23:00:00 23,2 20,9 20,9 23,4 20,2 11 6 19 11 W 1013,1 20 0 0,0
10.08.2020 22:00:00 23,0 19,6 19,3 23,4 20,2 14 7 19 10 W 1012,5 35 0 0,0
10.08.2020 21:00:00 24,7 18,6 21,6 23,4 20,2 2 1 7 4 NW 1011,1 44 0 0,0
10.08.2020 20:00:00 27,0 18,0 25,7 23,3 20,2 4 2 23 13 SSE 1010,8 45 0 0,0
10.08.2020 19:00:00 27,8 16,4 28,2 23,3 20,2 14 8 32 17 ESE 1010,7 51 38 0,0
10.08.2020 18:00:00 27,6 21,9 24,5 23,3 20,2 16 8 31 17 E 1011,2 9 25 0,4
10.08.2020 17:00:00 27,7 20,5 31,3 23,3 20,2 5 3 22 12 S 1012,1 26 15 0,0
10.08.2020 16:00:00 27,1 20,4 30,0 23,2 20,1 10 5 23 13 SE 1012,3 25 6 0,0
10.08.2020 15:00:00 26,3 20,2 25,4 23,2 20,2 13 7 29 16 ESE 1012,7 20 4 0,0
10.08.2020 14:00:00 25,1 20,6 25,8 23,2 20,2 6 4 18 10 WNW 1012,9 12 0 0,0
10.08.2020 13:00:00 25,3 19,9 30,9 23,2 20,1 8 4 16 9 NW 1012,9 20 1 0,0
10.08.2020 12:00:00 25,2 20,0 30,5 23,2 20,1 3 1 12 7 WNW 1012,8 24 8 0,0
10.08.2020 11:00:00 23,7 20,2 26,4 23,2 20,1 5 3 12 6 NNW 1013,2 18 0 0,0
10.08.2020 10:00:00 22,5 20,2 23,4 23,3 20,1 7 4 16 9 NW 1013,6 19 0 0,0
10.08.2020 09:00:00 21,8 20,3 22,3 23,3 20,1 7 4 12 7 N 1013,4 16 0 0,0
10.08.2020 08:00:00 21,4 20,0 20,6 23,3 20,1 4 2 7 4 N 1012,9 17 0 0,0
10.08.2020 07:00:00 21,1 19,7 20,4 23,4 20,1 7 4 17 9 W 1012,8 16 0 0,0
10.08.2020 06:00:00 21,2 19,7 20,4 23,4 20,1 12 6 19 10 WNW 1012,8 16 0 0,0
10.08.2020 05:00:00 21,3 20,1 20,6 23,4 20,1 4 2 13 7 W 1013,0 16 0 0,0
10.08.2020 04:00:00 21,3 20,1 19,7 23,4 20,1 8 4 21 11 W 1013,4 13 0 0,2
10.08.2020 03:00:00 20,8 19,8 19,8 23,4 20,1 10 6 18 10 WNW 1012,9 11 0 0,0
10.08.2020 02:00:00 21,5 20,0 20,2 23,4 20,1 10 5 17 9 N 1012,8 17 0 0,0
10.08.2020 01:00:00 21,9 20,0 20,5 23,5 20,1 8 5 22 12 SSW 1014,4 20 0 0,0
10.08.2020 00:00:00 21,8 20,1 20,5 23,4 20,1 16 8 27 15 W 1014,5 18 0 0,0
09.08.2020 23:00:00 22,7 20,4 21,1 23,4 20,1 11 6 37 20 W 1014,0 6 0 0,4
09.08.2020 22:00:00 24,1 20,8 23,1 23,4 20,1 19 10 32 17 W 1013,2 22 0 0,0
09.08.2020 21:00:00 27,0 22,2 25,4 23,3 20,1 14 8 23 12 W 1011,3 23 26 0,0
09.08.2020 20:00:00 31,7 22,1 30,8 23,2 20,1 2 1 12 7 SSW 1011,0 38 47 0,0
09.08.2020 19:00:00 33,4 16,7 32,9 23,1 20,1 7 4 24 13 E 1010,5 48 40 0,0
09.08.2020 18:00:00 35,5 16,3 37,6 23,1 20,1 11 6 23 13 E 1010,7 20 49 0,0
09.08.2020 17:00:00 36,5 15,0 35,2 23,0 20,0 10 5 23 12 E 1010,8 20 58 0,0
09.08.2020 16:00:00 33,3 21,1 34,7 22,9 20,0 9 5 24 13 ENE 1011,8 45 8 0,0
09.08.2020 15:00:00 33,5 22,0 42,0 22,9 20,0 8 4 21 11 NW 1013,0 36 56 0,0
09.08.2020 14:00:00 32,7 21,9 38,3 22,9 20,0 4 2 14 7 ENE 1013,3 0,9 51 0,0
09.08.2020 13:00:00 29,5 21,2 34,4 22,9 20,0 5 3 14 8 E 1014,0 48 31 0,0
09.08.2020 12:00:00 27,1 20,7 24,5 23,0 20,0 8 5 22 12 SW 1014,9 19 7 0,0
09.08.2020 11:00:00 26,0 19,4 27,3 23,0 20,0 13 7 20 11 SW 1015,9 31 17 0,0
09.08.2020 10:00:00 25,3 18,7 26,7 23,1 20,0 11 6 23 13 SE 1015,8 20 31 0,0
09.08.2020 09:00:00 23,5 19,0 20,8 23,1 20,0 9 5 15 8 SE 1016,4 27 60 0,0
09.08.2020 08:00:00 20,3 18,2 16,3 23,2 20,0 9 5 12 7 SSE 1016,7 22 12 0,0
09.08.2020 07:00:00 19,4 17,5 16,0 23,2 20,0 5 3 11 6 SE 1016,8 25 0 0,0
09.08.2020 06:00:00 19,9 17,9 17,7 23,2 20,0 5 3 25 14 N 1016,9 25 0 0,0
09.08.2020 05:00:00 20,7 18,1 18,8 23,3 20,0 11 6 24 13 NW 1016,7 33 0 0,0
09.08.2020 04:00:00 21,8 17,8 20,5 23,3 20,0 14 7 26 14 ESE 1016,1 37 0 0,0
09.08.2020 03:00:00 21,1 18,5 20,0 23,3 20,0 13 7 23 12 ESE 1017,5 31 0 0,0
09.08.2020 02:00:00 21,3 18,5 19,7 23,3 20,0 6 4 17 9 E 1019,3 31 0 0,0
09.08.2020 01:00:00 21,3 18,7 20,0 23,3 20,0 14 8 34 18 W 1021,4 32 0 0,0
09.08.2020 00:00:00 21,4 18,4 20,2 23,3 20,0 20 11 34 19 W 1020,3 31 0 0,0
08.08.2020 23:00:00 23,1 17,6 20,5 23,3 20,0 16 8 21 11 W 1018,5 41 0 0,0
08.08.2020 22:00:00 25,2 18,6 22,6 23,2 20,0 13 7 24 13 NW 1017,4 37 0 0,0
08.08.2020 21:00:00 28,2 19,4 25,0 23,1 20,0 10 5 20 11 NNW 1016,3 55 43 0,0
08.08.2020 20:00:00 30,3 20,5 29,8 23,0 20,0 12 7 21 11 WNW 1016,0 37 60 0,0
08.08.2020 19:00:00 31,6 19,9 34,7 22,9 20,0 10 6 20 11 WNW 1015,9 40 60 0,0
08.08.2020 18:00:00 32,0 19,6 38,7 22,8 20,0 10 5 27 14 NW 1016,5 31 60 0,0
08.08.2020 17:00:00 31,7 18,7 40,9 22,7 20,0 10 6 23 12 NW 1016,9 30 60 0,0
08.08.2020 16:00:00 31,3 19,3 38,5 22,6 20,0 10 5 18 10 WNW 1017,6 27 60 0,0
08.08.2020 15:00:00 30,1 18,8 40,9 22,5 20,0 6 4 17 9 N 1018,2 35 60 0,0
08.08.2020 14:00:00 28,6 18,7 33,1 22,5 20,0 11 6 21 11 NW 1019,0 20 41 0,0
08.08.2020 13:00:00 28,1 17,3 35,5 22,5 20,0 3 2 18 10 WNW 1019,4 53 45 0,0
08.08.2020 12:00:00 27,3 17,5 33,7 22,5 19,9 6 3 14 7 W 1019,8 20 54 0,0
08.08.2020 11:00:00 26,1 16,4 34,0 22,6 20,0 4 2 14 7 S 1020,0 30 60 0,0
08.08.2020 10:00:00 24,5 18,4 27,8 22,6 20,0 5 3 9 5 ESE 1020,5 29 60 0,0
08.08.2020 09:00:00 22,3 18,7 20,6 22,7 20,0 3 2 9 5 ESE 1020,7 25 60 0,0
08.08.2020 08:00:00 19,5 18,0 17,1 22,7 20,0 4 2 9 5 ENE 1020,9 20 39 0,0
08.08.2020 07:00:00 19,8 17,8 17,8 22,7 19,9 5 3 10 5 S 1020,8 24 0 0,0
08.08.2020 06:00:00 19,9 17,9 18,1 22,8 20,0 9 5 14 8 S 1020,7 25 0 0,0
08.08.2020 05:00:00 20,1 17,7 17,2 22,9 20,0 8 4 14 8 S 1020,5 29 0 0,0
08.08.2020 04:00:00 20,3 17,7 16,8 22,9 20,0 8 4 10 6 S 1020,1 26 0 0,0
08.08.2020 03:00:00 19,8 17,8 16,7 22,9 20,0 2 1 12 6 S 1019,8 29 0 0,0
08.08.2020 02:00:00 20,6 17,8 18,7 22,9 20,0 11 6 22 12 WNW 1019,4 29 0 0,0
08.08.2020 01:00:00 22,0 17,4 20,9 22,9 20,0 18 10 34 18 W 1019,8 34 0 0,0
08.08.2020 00:00:00 23,0 19,6 22,5 22,8 20,0 20 11 50 27 NW 1019,7 25 0 0,0
07.08.2020 23:00:00 23,5 19,6 20,8 22,8 20,0 13 7 30 16 SSE 1019,3 20 0 0,0
07.08.2020 22:00:00 22,4 19,8 21,1 22,7 19,9 13 7 37 20 W 1018,6 20 0 0,0
07.08.2020 21:00:00 23,6 20,1 21,5 22,6 20,0 8 5 35 19 WNW 1017,7 22 4 0,0
07.08.2020 20:00:00 24,8 20,3 24,8 22,5 20,0 29 16 49 26 WNW 1016,5 15 40 0,0
07.08.2020 19:00:00 29,6 22,3 32,0 22,3 20,0 28 15 37 20 WNW 1014,8 15 60 0,0
07.08.2020 18:00:00 35,3 22,3 40,4 22,2 20,0 18 10 27 15 NW 1013,5 20 60 0,0
07.08.2020 17:00:00 36,9 18,5 44,0 22,0 19,9 12 7 24 13 N 1013,3 23 60 0,0
07.08.2020 16:00:00 37,0 18,1 41,7 21,9 19,9 11 6 25 14 N 1013,6 25 60 0,0
07.08.2020 15:00:00 36,0 19,0 45,5 21,8 20,0 8 5 16 8 N 1013,9 20 60 0,0
07.08.2020 14:00:00 34,6 22,0 45,2 21,8 20,0 4 2 16 9 NW 1014,2 40 60 0,0
07.08.2020 13:00:00 33,7 19,8 42,5 21,8 19,9 5 3 17 9 W 1014,6 42 60 0,0
07.08.2020 12:00:00 32,4 18,2 40,2 21,8 19,9 7 4 16 8 W 1014,8 35 60 0,0

tt = Température de l'air
td = dewpoint
tt 5cm = Température de l'air 5cm
tt -20cm = Température de l'air -20cm
tt -100cm = Température de l'air -100cm
ff = Vitesse du vent
fx = gusts
dd = Direction du vent
ppp = reduced air pressure
vv = visibility
sd = Ensoleillement
rr = Quantités de précipitations

stations d'obs. à proximité